Kirksville, MO

12:30 PM CDT on March 25, 2017 (GMT -0500)
Kirksville Regional

Weather History for KIRK - September, 2014

Change the Weather History Date:

Saturday, September 27, 2014

  Actual Average Record
Temperature  
Mean Temperature 70 °F 60 °F  
Max Temperature 81 °F 71 °F 91 °F (1953)
Min Temperature 58 °F 48 °F 30 °F (1942)
Degree Days  
Heating Degree Days 0 7  
Month to date heating degree days 100 78  
Since 1 July heating degree days 106 85  
Cooling Degree Days 5 1  
Month to date cooling degree days 79 78  
Year to date cooling degree days 945 922  
Growing Degree Days 18 (Base 50)    
Moisture  
Dew Point 59 °F    
Average Humidity 74    
Maximum Humidity 97    
Minimum Humidity 51    
Precipitation  
Precipitation 0.00 in 0.12 in 1.52 in (1999)
Month to date precipitation 10.07 3.81  
Year to date precipitation 38.16 31.22  
Sea Level Pressure  
Sea Level Pressure 30.16 in    
Wind  
Wind Speed 4 mph (SE)    
Max Wind Speed 13 mph    
Max Gust Speed 16 mph    
Visibility 8 miles    
Events      
T = Trace of Precipitation, MM = Missing Value Source: NWS Daily Summary

Daily Weather History Graph

Daily Weather History Graph

Search for Another Location

Airport or City:

Trip Planner

Search our weather history database for the weather conditions in past years. The results will help you decide how hot, cold, wet, or windy it might be!

Date:

Astronomy

Sep. 27, 2014 Rise Set
Actual Time 7:02 AM CDT 6:58 PM CDT
Civil Twilight 6:35 AM CDT 7:25 PM CDT
Nautical Twilight 6:04 AM CDT 7:57 PM CDT
Astronomical Twilight 5:32 AM CDT 8:29 PM CDT
Moon 10:18 AM CDT (9/27) 8:58 PM CDT (9/27)
Length of Visible Light 12h 50m
Length of Day
11h 56m
Waxing Crescent, 11% of the Moon is Illuminated
Sep 27
Waxing Crescent
Oct 1
First Quarter
Oct 8
Full
Oct 15
Last Quarter
Oct 23
New

Hourly Weather History & Observations

Time (CDT) Temp. Heat Index Dew Point Humidity Pressure Visibility Wind Dir Wind Speed Gust Speed Precip Events Conditions
12:55 AM 64.9 °F - 59.0 °F 81% 30.17 in 10.0 mi SSE 4.6 mph - N/A   Clear
1:55 AM 62.1 °F - 57.9 °F 86% 30.17 in 9.0 mi SE 6.9 mph - N/A   Clear
2:55 AM 62.1 °F - 57.9 °F 86% 30.17 in 8.0 mi SE 4.6 mph - N/A   Clear
3:55 AM 61.0 °F - 57.0 °F 87% 30.17 in 7.0 mi SE 3.5 mph - N/A   Clear
4:55 AM 59.0 °F - 55.9 °F 90% 30.17 in 8.0 mi Calm Calm - N/A   Clear
5:55 AM 60.1 °F - 57.0 °F 90% 30.17 in 8.0 mi ESE 4.6 mph - N/A   Clear
6:55 AM 59.0 °F - 55.9 °F 90% 30.19 in 7.0 mi ESE 4.6 mph - N/A   Clear
7:55 AM 61.0 °F - 57.9 °F 90% 30.20 in 5.0 mi ESE 3.5 mph - N/A   Clear
8:55 AM 66.0 °F - 60.1 °F 81% 30.20 in 7.0 mi SE 4.6 mph - N/A   Clear
9:55 AM 71.1 °F - 62.1 °F 73% 30.20 in 10.0 mi SSE 5.8 mph - N/A   Clear
10:55 AM 75.0 °F - 62.1 °F 64% 30.20 in 10.0 mi SSW 4.6 mph - N/A   Partly Cloudy
11:55 AM 78.1 °F - 61.0 °F 56% 30.19 in 10.0 mi SW 5.8 mph - N/A   Clear
12:55 PM 78.1 °F - 62.1 °F 58% 30.18 in 10.0 mi Variable 6.9 mph - N/A   Mostly Cloudy
1:55 PM 80.1 °F 80.9 °F 60.1 °F 50% 30.15 in 10.0 mi ESE 8.1 mph - N/A   Mostly Cloudy
2:55 PM 77.0 °F - 61.0 °F 58% 30.14 in 10.0 mi SE 8.1 mph - N/A   Partly Cloudy
3:55 PM 78.1 °F - 61.0 °F 56% 30.12 in 10.0 mi SE 8.1 mph - N/A   Mostly Cloudy
4:55 PM 79.0 °F - 60.1 °F 52% 30.11 in 10.0 mi SE 10.4 mph - N/A   Mostly Cloudy
5:55 PM 78.1 °F - 60.1 °F 54% 30.11 in 10.0 mi SE 8.1 mph - N/A   Partly Cloudy
6:55 PM 70.0 °F - 62.1 °F 76% 30.12 in 10.0 mi SSE 3.5 mph - N/A   Clear
7:55 PM 66.0 °F - 62.1 °F 87% 30.13 in 7.0 mi Calm Calm - N/A   Clear
8:55 PM 63.0 °F - 59.0 °F 87% 30.14 in 7.0 mi Calm Calm - N/A   Clear
9:55 PM 61.0 °F - 59.0 °F 93% 30.14 in 4.0 mi Calm Calm - N/A   Clear
10:55 PM 61.0 °F - 59.0 °F 93% 30.14 in 3.0 mi Calm Calm - N/A   Clear
11:46 PM 57.9 °F - 57.0 °F 97% 30.15 in 2.5 mi Calm Calm - N/A   Clear
11:55 PM 59.0 °F - 57.0 °F 93% 30.14 in 3.0 mi Calm Calm - N/A   Clear